Starlink 11681

operational
NORAD ID: 63755 Int'l Des: 2025-089 Owner: SPXS Country: US Constellation: starlink
LEOCIRCULAR

关于 Starlink 11681

正在加载描述...

实时位置

正在加载3D地球...

即将过境

高度历史

Altitude vs Time

uPlot chart will show altitude changes over time

两行轨道根数

1 63755U 25089E 26036.64912672 .00310435 00000-0 23170-2 0 9995
2 63755 43.0011 125.6200 0004748 284.0635 75.9705 15.71003796 45094
Epoch: Feb 5, 2026 • Age: 21 hours

当前状态

高度 359.7 km
速度 7.70 km/s
星下点 -30.07°S, 114.44°E
发射日期 Apr 29, 2025
运行时间 0.7 years
类型 internet

技术详情

分类 Payload
质量 960.00 kg
干质量 910.00 kg
总质量 960.00 kg
长度 0.30 m
直径 4.10 m
跨度 29.00 m
形状 Box + pan
制造商 SPXS
平台类型 Starlink V2MD
阶段状态 In Orbit
所有者/国家 SPXS/US

大型星座

Loading constellations...